Time,TemperatureF,DewpointF,PressureIn,WindDirection,WindDirectionDegrees,WindSpeedMPH,WindSpeedGustMPH,Humidity,HourlyPrecipIn,Conditions,Clouds,dailyrainin,SoftwareType,DateUTC
2013-07-26 00:01:00,60.0,57.7,30.04,SSE,160,0.0,0.0,92,0.00,CLR,,0.00,WeatherDisplay:10.37,2013-07-26 04:01:00,
2013-07-26 00:06:00,59.7,57.4,30.04,SSE,161,0.0,0.0,92,0.00,CLR,,0.00,WeatherDisplay:10.37,2013-07-26 04:06:00,
2013-07-26 00:11:00,59.4,57.1,30.05,SSE,160,0.0,0.0,92,0.00,CLR,,0.00,WeatherDisplay:10.37,2013-07-26 04:11:00,
2013-07-26 00:16:00,59.1,57.1,30.04,SSE,160,0.0,0.0,93,0.00,CLR,,0.00,WeatherDisplay:10.37,2013-07-26 04:16:00,
2013-07-26 00:22:00,59.2,57.5,30.04,SSE,160,0.0,0.0,94,0.00,CLR,,0.00,WeatherDisplay:10.37,2013-07-26 04:22:00,
2013-07-26 00:27:00,59.1,57.4,30.04,SSE,160,0.0,0.0,94,0.00,CLR,,0.00,WeatherDisplay:10.37,2013-07-26 04:27:00,
2013-07-26 00:32:00,59.0,57.3,30.03,SSE,160,1.2,0.0,94,0.00,CLR,,0.00,WeatherDisplay:10.37,2013-07-26 04:32:00,
2013-07-26 00:37:00,59.0,57.3,30.04,SSE,161,0.0,0.0,94,0.00,CLR,,0.00,WeatherDisplay:10.37,2013-07-26 04:37:00,
2013-07-26 00:42:00,58.9,57.2,30.04,SSE,160,0.0,0.0,94,0.00,CLR,,0.00,WeatherDisplay:10.37,2013-07-26 04:42:00,
2013-07-26 00:47:00,58.8,57.1,30.04,SSE,161,0.0,0.0,94,0.00,CLR,,0.00,WeatherDisplay:10.37,2013-07-26 04:47:00,
2013-07-26 00:52:00,58.6,56.9,30.03,SSE,161,0.0,0.0,94,0.00,CLR,,0.00,WeatherDisplay:10.37,2013-07-26 04:52:00,
2013-07-26 00:57:00,58.6,57.2,30.03,SSE,161,0.0,0.0,95,0.00,CLR,,0.00,WeatherDisplay:10.37,2013-07-26 04:57:00,
2013-07-26 01:02:00,58.5,56.8,30.03,SSE,161,0.0,0.0,94,0.00,CLR,,0.00,WeatherDisplay:10.37,2013-07-26 05:02:00,
2013-07-26 01:07:00,58.2,56.5,30.04,SSE,160,0.0,0.0,94,0.00,,,0.00,WeatherDisplay:10.37,2013-07-26 05:07:00,
2013-07-26 01:12:00,57.9,56.2,30.04,SSE,160,0.0,0.0,94,0.00,,,0.00,WeatherDisplay:10.37,2013-07-26 05:12:00,
2013-07-26 01:17:00,57.8,56.4,30.04,SSE,161,0.0,0.0,95,0.00,,,0.00,WeatherDisplay:10.37,2013-07-26 05:17:00,
2013-07-26 01:22:00,57.6,55.9,30.04,SSE,161,0.0,0.0,94,0.00,,,0.00,WeatherDisplay:10.37,2013-07-26 05:22:00,
2013-07-26 01:27:00,57.5,56.1,30.04,SSE,161,0.0,0.0,95,0.00,,,0.00,WeatherDisplay:10.37,2013-07-26 05:27:00,
2013-07-26 01:32:00,57.5,56.1,30.04,SSE,160,0.0,0.0,95,0.00,,,0.00,WeatherDisplay:10.37,2013-07-26 05:32:00,
2013-07-26 01:37:00,57.5,56.1,30.04,SSE,161,0.0,0.0,95,0.00,,,0.00,WeatherDisplay:10.37,2013-07-26 05:37:00,
2013-07-26 01:42:00,57.4,56.0,30.04,SSE,160,1.2,0.0,95,0.00,,,0.00,WeatherDisplay:10.37,2013-07-26 05:42:00,
2013-07-26 01:47:00,57.2,55.8,30.04,SSE,160,0.0,0.0,95,0.00,,,0.00,WeatherDisplay:10.37,2013-07-26 05:47:00,
2013-07-26 01:52:00,56.9,55.5,30.04,SSE,161,0.0,0.0,95,0.00,,,0.00,WeatherDisplay:10.37,2013-07-26 05:52:00,
2013-07-26 01:57:00,56.8,55.7,30.04,SSE,160,0.0,0.0,96,0.00,,,0.00,WeatherDisplay:10.37,2013-07-26 05:57:00,
2013-07-26 02:02:00,57.0,55.9,30.04,SSE,160,0.0,0.0,96,0.00,,,0.00,WeatherDisplay:10.37,2013-07-26 06:02:00,
2013-07-26 02:07:00,56.9,55.8,30.04,SSE,160,0.0,0.0,96,0.00,,,0.00,WeatherDisplay:10.37,2013-07-26 06:07:00,
2013-07-26 02:12:00,56.9,55.8,30.03,SSE,160,0.0,0.0,96,0.00,,,0.00,WeatherDisplay:10.37,2013-07-26 06:12:00,
2013-07-26 02:17:00,57.1,56.0,30.03,SSE,160,1.2,1.2,96,0.00,,,0.00,WeatherDisplay:10.37,2013-07-26 06:17:00,
2013-07-26 02:22:00,57.2,56.1,30.03,SSE,160,0.0,0.0,96,0.00,,,0.00,WeatherDisplay:10.37,2013-07-26 06:22:00,
2013-07-26 02:27:00,57.3,56.2,30.03,SSE,161,0.0,0.0,96,0.00,,,0.00,WeatherDisplay:10.37,2013-07-26 06:27:00,
2013-07-26 02:32:00,57.2,56.1,30.03,SSE,160,0.0,0.0,96,0.00,,,0.00,WeatherDisplay:10.37,2013-07-26 06:32:00,
2013-07-26 02:37:00,57.2,56.1,30.03,SSE,160,0.0,0.1,96,0.00,,,0.00,WeatherDisplay:10.37,2013-07-26 06:37:00,
2013-07-26 02:42:00,57.2,56.1,30.03,SSE,160,0.0,0.0,96,0.00,,,0.00,WeatherDisplay:10.37,2013-07-26 06:42:00,
2013-07-26 02:47:00,57.2,56.1,30.03,SSE,160,1.2,1.2,96,0.00,,,0.00,WeatherDisplay:10.37,2013-07-26 06:47:00,
2013-07-26 02:52:00,57.1,56.0,30.02,SSE,147,1.2,1.2,96,0.00,,,0.00,WeatherDisplay:10.37,2013-07-26 06:52:00,
2013-07-26 02:57:00,57.0,55.9,30.02,SSE,147,0.0,0.0,96,0.00,,,0.00,WeatherDisplay:10.37,2013-07-26 06:57:00,
2013-07-26 03:02:00,57.0,55.9,30.02,SSE,147,0.0,0.0,96,0.00,,,0.00,WeatherDisplay:10.37,2013-07-26 07:02:00,
2013-07-26 03:07:00,56.8,55.7,30.02,SSE,147,0.0,0.0,96,0.00,,,0.00,WeatherDisplay:10.37,2013-07-26 07:07:00,
2013-07-26 03:12:00,56.8,55.7,30.03,SSE,147,0.0,0.0,96,0.00,,,0.00,WeatherDisplay:10.37,2013-07-26 07:12:00,
2013-07-26 03:17:00,56.7,55.6,30.03,SSE,147,1.2,0.0,96,0.00,,,0.00,WeatherDisplay:10.37,2013-07-26 07:17:00,
2013-07-26 03:22:00,56.6,55.5,30.03,SSE,147,0.0,0.0,96,0.00,,,0.00,WeatherDisplay:10.37,2013-07-26 07:22:00,
2013-07-26 03:27:00,56.5,55.4,30.02,SSE,147,0.0,0.0,96,0.00,,,0.00,WeatherDisplay:10.37,2013-07-26 07:27:00,
2013-07-26 03:32:00,56.5,55.4,30.03,SSE,147,0.0,0.0,96,0.00,,,0.00,WeatherDisplay:10.37,2013-07-26 07:32:00,
2013-07-26 03:37:00,56.5,55.4,30.02,SE,146,0.0,0.0,96,0.00,,,0.00,WeatherDisplay:10.37,2013-07-26 07:37:00,
2013-07-26 03:42:00,56.5,55.4,30.02,SSE,147,0.0,0.0,96,0.00,,,0.00,WeatherDisplay:10.37,2013-07-26 07:42:00,
2013-07-26 03:47:00,56.5,55.4,30.02,SSE,147,0.0,0.0,96,0.00,,,0.00,WeatherDisplay:10.37,2013-07-26 07:47:00,
2013-07-26 03:52:00,56.5,55.4,30.02,SE,146,0.0,0.0,96,0.00,,,0.00,WeatherDisplay:10.37,2013-07-26 07:52:00,
2013-07-26 03:57:00,56.5,55.4,30.02,SSE,147,0.0,0.0,96,0.00,,,0.00,WeatherDisplay:10.37,2013-07-26 07:57:00,
2013-07-26 04:02:00,56.5,55.4,30.02,SSE,147,0.0,0.0,96,0.00,,,0.00,WeatherDisplay:10.37,2013-07-26 08:02:00,
2013-07-26 04:07:00,56.6,55.5,30.03,SSE,147,0.0,0.0,96,0.00,,,0.00,WeatherDisplay:10.37,2013-07-26 08:07:00,
2013-07-26 04:12:00,56.5,55.4,30.02,SSE,147,0.0,0.0,96,0.00,,,0.00,WeatherDisplay:10.37,2013-07-26 08:12:00,
2013-07-26 04:17:00,56.4,55.3,30.03,SE,146,0.0,0.0,96,0.00,,,0.00,WeatherDisplay:10.37,2013-07-26 08:17:00,
2013-07-26 04:22:00,56.4,55.3,30.03,SSE,147,0.0,0.0,96,0.00,,,0.00,WeatherDisplay:10.37,2013-07-26 08:22:00,
2013-07-26 04:27:00,56.4,55.3,30.03,SSE,147,1.2,0.0,96,0.00,,,0.00,WeatherDisplay:10.37,2013-07-26 08:27:00,
2013-07-26 04:33:00,56.5,55.4,30.03,SE,146,1.2,1.2,96,0.00,,,0.00,WeatherDisplay:10.37,2013-07-26 08:33:00,
2013-07-26 04:38:00,56.4,55.3,30.03,SSE,147,0.0,0.0,96,0.00,,,0.00,WeatherDisplay:10.37,2013-07-26 08:38:00,
2013-07-26 04:43:00,56.2,55.1,30.03,SSE,147,0.0,0.0,96,0.00,,,0.00,WeatherDisplay:10.37,2013-07-26 08:43:00,
2013-07-26 04:48:00,56.2,55.1,30.03,SE,146,0.0,0.0,96,0.00,,,0.00,WeatherDisplay:10.37,2013-07-26 08:48:00,
2013-07-26 04:53:00,56.2,55.4,30.03,SSE,147,0.0,0.0,97,0.00,,,0.00,WeatherDisplay:10.37,2013-07-26 08:53:00,
2013-07-26 04:58:00,56.1,55.0,30.03,SSE,150,0.0,0.0,96,0.00,,,0.00,WeatherDisplay:10.37,2013-07-26 08:58:00,
2013-07-26 05:03:00,56.1,55.3,30.03,SSE,150,0.0,0.0,97,0.00,,,0.00,WeatherDisplay:10.37,2013-07-26 09:03:00,
2013-07-26 05:08:00,56.0,54.9,30.03,SSE,150,0.0,0.0,96,0.00,,,0.00,WeatherDisplay:10.37,2013-07-26 09:08:00,
2013-07-26 05:13:00,56.0,55.2,30.03,SSE,150,1.2,1.2,97,0.00,,,0.00,WeatherDisplay:10.37,2013-07-26 09:13:00,
2013-07-26 05:18:00,56.1,55.3,30.03,SSE,150,0.0,0.0,97,0.00,,,0.00,WeatherDisplay:10.37,2013-07-26 09:18:00,
2013-07-26 05:23:00,56.1,55.3,30.03,SSE,148,1.2,1.2,97,0.00,,,0.00,WeatherDisplay:10.37,2013-07-26 09:23:00,
2013-07-26 05:28:00,56.1,55.3,30.03,SSE,148,0.0,0.0,97,0.00,,,0.00,WeatherDisplay:10.37,2013-07-26 09:28:00,
2013-07-26 05:33:00,56.0,55.2,30.03,SSE,148,0.0,0.0,97,0.00,,,0.00,WeatherDisplay:10.37,2013-07-26 09:33:00,
2013-07-26 05:38:00,55.9,55.1,30.03,SSE,148,0.0,0.0,97,0.00,,,0.00,WeatherDisplay:10.37,2013-07-26 09:38:00,
2013-07-26 05:43:00,55.8,54.7,30.03,SSE,148,0.0,0.0,96,0.00,,,0.00,WeatherDisplay:10.37,2013-07-26 09:43:00,
2013-07-26 05:48:00,55.7,54.6,30.03,SSE,148,0.0,0.0,96,0.00,,,0.00,WeatherDisplay:10.37,2013-07-26 09:48:00,
2013-07-26 05:53:00,55.7,54.9,30.03,SSE,148,0.0,0.0,97,0.00,,,0.00,WeatherDisplay:10.37,2013-07-26 09:53:00,
2013-07-26 05:58:00,55.5,54.7,30.03,SSE,148,0.0,0.0,97,0.00,,,0.00,WeatherDisplay:10.37,2013-07-26 09:58:00,
2013-07-26 06:03:00,55.5,54.7,30.03,SSE,148,0.0,0.0,97,0.00,CLR,,0.00,WeatherDisplay:10.37,2013-07-26 10:03:00,
2013-07-26 06:08:00,55.6,54.8,30.03,SSE,148,0.0,0.0,97,0.00,CLR,,0.00,WeatherDisplay:10.37,2013-07-26 10:08:00,
2013-07-26 06:13:00,55.6,54.8,30.03,SSE,148,0.0,0.0,97,0.00,CLR,,0.00,WeatherDisplay:10.37,2013-07-26 10:13:00,
2013-07-26 06:18:00,55.5,54.7,30.03,SSE,148,0.0,0.0,97,0.00,CLR,,0.00,WeatherDisplay:10.37,2013-07-26 10:18:00,
2013-07-26 06:23:00,55.4,54.6,30.03,SSE,148,0.0,0.0,97,0.00,CLR,,0.00,WeatherDisplay:10.37,2013-07-26 10:23:00,
2013-07-26 06:28:00,55.4,54.6,30.03,SSE,148,0.0,0.0,97,0.00,CLR,,0.00,WeatherDisplay:10.37,2013-07-26 10:28:00,
2013-07-26 06:33:00,55.4,54.6,30.03,SSE,148,0.0,0.0,97,0.00,CLR,,0.00,WeatherDisplay:10.37,2013-07-26 10:33:00,
2013-07-26 06:38:00,55.3,54.5,30.03,SSE,148,0.0,0.0,97,0.00,CLR,,0.00,WeatherDisplay:10.37,2013-07-26 10:38:00,
2013-07-26 06:43:00,55.4,54.6,30.03,SSE,148,0.0,0.0,97,0.00,CLR,,0.00,WeatherDisplay:10.37,2013-07-26 10:43:00,
2013-07-26 06:48:00,55.5,54.7,30.03,SSE,148,0.0,0.0,97,0.00,CLR,,0.00,WeatherDisplay:10.37,2013-07-26 10:48:00,
2013-07-26 06:53:00,55.8,55.0,30.04,SSE,148,0.0,0.0,97,0.00,CLR,,0.00,WeatherDisplay:10.37,2013-07-26 10:53:00,
2013-07-26 06:58:00,56.2,55.4,30.03,SSE,148,0.0,0.0,97,0.00,CLR,,0.00,WeatherDisplay:10.37,2013-07-26 10:58:00,
2013-07-26 07:03:00,56.2,55.4,30.03,SSE,148,0.0,0.0,97,0.00,CLR,,0.00,WeatherDisplay:10.37,2013-07-26 11:03:00,
2013-07-26 07:08:00,56.3,55.5,30.04,SSE,148,0.0,0.0,97,0.00,CLR,,0.00,WeatherDisplay:10.37,2013-07-26 11:08:00,
2013-07-26 07:13:00,56.9,56.1,30.04,SSE,148,0.0,0.0,97,0.00,CLR,,0.00,WeatherDisplay:10.37,2013-07-26 11:13:00,
2013-07-26 07:18:00,57.6,56.8,30.04,SSE,151,1.2,1.2,97,0.00,CLR,,0.00,WeatherDisplay:10.37,2013-07-26 11:18:00,
2013-07-26 07:23:00,58.2,57.1,30.05,SSE,160,1.2,1.2,96,0.00,CLR,,0.00,WeatherDisplay:10.37,2013-07-26 11:23:00,
2013-07-26 07:28:00,58.8,57.4,30.05,SSE,161,1.2,1.2,95,0.00,CLR,,0.00,WeatherDisplay:10.37,2013-07-26 11:28:00,
2013-07-26 07:33:00,59.5,57.8,30.05,SE,135,1.2,1.2,94,0.00,CLR,,0.00,WeatherDisplay:10.37,2013-07-26 11:33:00,
2013-07-26 07:38:00,60.1,57.8,30.05,SE,141,1.2,1.2,92,0.00,CLR,,0.00,WeatherDisplay:10.37,2013-07-26 11:38:00,
2013-07-26 07:43:00,60.5,57.9,30.05,SE,137,1.2,1.2,91,0.00,CLR,,0.00,WeatherDisplay:10.37,2013-07-26 11:43:00,
2013-07-26 07:48:00,61.0,58.4,30.05,SE,142,1.2,1.2,91,0.00,CLR,,0.00,WeatherDisplay:10.37,2013-07-26 11:48:00,
2013-07-26 07:53:00,61.7,58.7,30.05,ESE,122,3.5,3.5,90,0.00,CLR,,0.00,WeatherDisplay:10.37,2013-07-26 11:53:00,
2013-07-26 07:58:00,62.1,58.5,30.05,SE,145,2.3,2.3,88,0.00,CLR,,0.00,WeatherDisplay:10.37,2013-07-26 11:58:00,
2013-07-26 08:03:00,62.4,58.8,30.06,ESE,116,2.3,2.3,88,0.00,CLR,,0.00,WeatherDisplay:10.37,2013-07-26 12:03:00,
2013-07-26 08:08:00,62.9,58.6,30.06,NNE,33,2.3,2.3,86,0.00,CLR,,0.00,WeatherDisplay:10.37,2013-07-26 12:08:00,
2013-07-26 08:13:00,63.2,59.3,30.06,NNW,335,1.2,1.2,87,0.00,CLR,,0.00,WeatherDisplay:10.37,2013-07-26 12:13:00,
2013-07-26 08:18:00,63.9,59.6,30.05,SE,141,3.5,3.5,86,0.00,CLR,,0.00,WeatherDisplay:10.37,2013-07-26 12:18:00,
2013-07-26 08:23:00,64.5,59.9,30.05,SE,135,3.5,3.5,85,0.00,CLR,,0.00,WeatherDisplay:10.37,2013-07-26 12:23:00,
2013-07-26 08:28:00,65.1,60.1,30.06,ENE,77,4.0,4.0,84,0.00,CLR,,0.00,WeatherDisplay:10.37,2013-07-26 12:28:00,
2013-07-26 08:33:00,65.4,59.8,30.06,East,91,5.0,5.0,82,0.00,CLR,,0.00,WeatherDisplay:10.37,2013-07-26 12:33:00,
2013-07-26 08:38:00,65.4,59.8,30.05,East,98,5.0,5.0,82,0.00,CLR,,0.00,WeatherDisplay:10.37,2013-07-26 12:38:00,
2013-07-26 08:43:00,65.6,60.0,30.06,North,11,3.5,3.5,82,0.00,CLR,,0.00,WeatherDisplay:10.37,2013-07-26 12:43:00,
2013-07-26 08:48:00,65.8,60.2,30.06,ENE,57,4.6,4.6,82,0.00,CLR,,0.00,WeatherDisplay:10.37,2013-07-26 12:48:00,
2013-07-26 08:53:00,66.4,60.7,30.06,NNW,345,3.5,3.5,82,0.00,CLR,,0.00,WeatherDisplay:10.37,2013-07-26 12:53:00,
2013-07-26 08:58:00,66.8,60.8,30.06,ESE,110,5.8,5.8,81,0.00,CLR,,0.00,WeatherDisplay:10.37,2013-07-26 12:58:00,
2013-07-26 09:03:00,67.5,61.1,30.06,ENE,63,3.5,3.5,80,0.00,CLR,,0.00,WeatherDisplay:10.37,2013-07-26 13:03:00,
2013-07-26 09:08:00,67.7,61.3,30.05,East,88,3.5,3.5,80,0.00,CLR,,0.00,WeatherDisplay:10.37,2013-07-26 13:08:00,
2013-07-26 09:13:00,68.0,61.2,30.05,NNE,28,3.5,3.5,79,0.00,CLR,,0.00,WeatherDisplay:10.37,2013-07-26 13:13:00,
2013-07-26 09:18:00,68.4,62.0,30.05,SE,132,3.5,3.5,80,0.00,CLR,,0.00,WeatherDisplay:10.37,2013-07-26 13:18:00,
2013-07-26 09:23:00,68.8,61.7,30.05,NE,35,3.5,3.5,78,0.00,CLR,,0.00,WeatherDisplay:10.37,2013-07-26 13:23:00,
2013-07-26 09:28:00,68.7,61.9,30.05,ENE,77,4.6,4.6,79,0.00,CLR,,0.00,WeatherDisplay:10.37,2013-07-26 13:28:00,
2013-07-26 09:33:00,69.0,61.9,30.05,NNE,13,3.5,3.5,78,0.00,CLR,,0.00,WeatherDisplay:10.37,2013-07-26 13:33:00,
2013-07-26 09:38:00,69.8,63.0,30.05,ESE,106,3.5,3.5,79,0.00,CLR,,0.00,WeatherDisplay:10.37,2013-07-26 13:38:00,
2013-07-26 09:43:00,70.1,62.6,30.05,SSE,163,3.5,3.5,77,0.00,CLR,,0.00,WeatherDisplay:10.37,2013-07-26 13:43:00,
2013-07-26 09:48:00,71.0,63.4,30.05,SE,138,2.3,2.3,77,0.00,CLR,,0.00,WeatherDisplay:10.37,2013-07-26 13:48:00,
2013-07-26 09:53:00,71.6,63.6,30.05,NNE,13,3.5,3.5,76,0.00,CLR,,0.00,WeatherDisplay:10.37,2013-07-26 13:53:00,
2013-07-26 09:58:00,71.6,63.3,30.05,SE,145,3.5,3.5,75,0.00,CLR,,0.00,WeatherDisplay:10.37,2013-07-26 13:58:00,
2013-07-26 10:03:00,72.5,64.9,30.05,SE,138,2.3,2.3,77,0.00,CLR,,0.00,WeatherDisplay:10.37,2013-07-26 14:03:00,
2013-07-26 10:08:00,72.6,63.8,30.05,NE,50,1.2,1.2,74,0.00,CLR,,0.00,WeatherDisplay:10.37,2013-07-26 14:08:00,
2013-07-26 10:13:00,73.6,65.2,30.05,ESE,106,3.5,3.5,75,0.00,CLR,,0.00,WeatherDisplay:10.37,2013-07-26 14:13:00,
2013-07-26 10:18:00,74.1,64.9,30.05,South,185,3.5,3.5,73,0.00,CLR,,0.00,WeatherDisplay:10.37,2013-07-26 14:18:00,
2013-07-26 10:24:00,75.3,65.6,30.05,WSW,237,1.2,1.2,72,0.00,CLR,,0.00,WeatherDisplay:10.37,2013-07-26 14:24:00,
2013-07-26 10:29:00,75.8,64.9,30.06,ESE,109,2.3,2.3,69,0.00,CLR,,0.00,WeatherDisplay:10.37,2013-07-26 14:29:00,
2013-07-26 10:34:00,76.0,65.9,30.05,ESE,123,0.0,0.0,71,0.00,CLR,,0.00,WeatherDisplay:10.37,2013-07-26 14:34:00,
2013-07-26 10:39:00,77.0,65.2,30.05,South,191,2.3,2.3,67,0.00,CLR,,0.00,WeatherDisplay:10.37,2013-07-26 14:39:00,
2013-07-26 10:44:00,77.0,64.8,30.05,SW,219,3.5,3.5,66,0.00,CLR,,0.00,WeatherDisplay:10.37,2013-07-26 14:44:00,
2013-07-26 10:49:00,77.1,64.9,30.05,WSW,248,2.3,2.3,66,0.00,CLR,,0.00,WeatherDisplay:10.37,2013-07-26 14:49:00,
2013-07-26 10:54:00,76.7,64.5,30.06,WNW,299,3.5,3.5,66,0.00,CLR,,0.00,WeatherDisplay:10.37,2013-07-26 14:54:00,
2013-07-26 10:59:00,76.5,65.6,30.05,West,269,3.5,3.5,69,0.00,CLR,,0.00,WeatherDisplay:10.37,2013-07-26 14:59:00,
2013-07-26 11:04:00,76.8,65.0,30.05,WSW,248,2.3,2.3,67,0.00,CLR,,0.00,WeatherDisplay:10.37,2013-07-26 15:04:00,
2013-07-26 11:09:00,77.5,65.7,30.05,WNW,286,5.8,5.8,67,0.00,CLR,,0.00,WeatherDisplay:10.37,2013-07-26 15:09:00,
2013-07-26 11:14:00,77.3,65.5,30.05,NW,310,3.5,3.5,67,0.00,CLR,,0.00,WeatherDisplay:10.37,2013-07-26 15:14:00,
2013-07-26 11:19:00,77.5,66.9,30.05,WSW,248,1.2,1.2,70,0.00,CLR,,0.00,WeatherDisplay:10.37,2013-07-26 15:19:00,
2013-07-26 11:24:00,77.6,64.9,30.05,WSW,255,3.5,3.5,65,0.00,CLR,,0.00,WeatherDisplay:10.37,2013-07-26 15:24:00,
2013-07-26 11:29:00,77.9,65.2,30.05,WNW,288,4.6,4.6,65,0.00,CLR,,0.00,WeatherDisplay:10.37,2013-07-26 15:29:00,
2013-07-26 11:34:00,78.3,65.1,30.05,West,279,3.5,3.5,64,0.00,CLR,,0.00,WeatherDisplay:10.37,2013-07-26 15:34:00,
2013-07-26 11:39:00,78.2,64.6,30.05,NW,320,8.1,8.1,63,0.00,CLR,,0.00,WeatherDisplay:10.37,2013-07-26 15:39:00,
2013-07-26 11:44:00,78.0,65.7,30.05,WSW,245,3.5,3.5,66,0.00,CLR,,0.00,WeatherDisplay:10.37,2013-07-26 15:44:00,
2013-07-26 11:49:00,78.0,64.8,30.05,WSW,251,4.6,4.6,64,0.00,CLR,,0.00,WeatherDisplay:10.37,2013-07-26 15:49:00,
2013-07-26 11:54:00,77.6,65.3,30.05,West,264,5.8,5.8,66,0.00,CLR,,0.00,WeatherDisplay:10.37,2013-07-26 15:54:00,
2013-07-26 11:59:00,77.9,66.5,30.05,WNW,290,3.5,3.5,68,0.00,CLR,,0.00,WeatherDisplay:10.37,2013-07-26 15:59:00,
2013-07-26 12:04:00,78.4,66.1,30.05,WNW,299,7.0,7.0,66,0.00,CLR,,0.00,WeatherDisplay:10.37,2013-07-26 16:04:00,
2013-07-26 12:09:00,78.4,67.0,30.05,WSW,252,4.6,4.6,68,0.00,CLR,,0.00,WeatherDisplay:10.37,2013-07-26 16:09:00,
2013-07-26 12:14:00,78.9,65.7,30.05,SW,222,5.8,5.8,64,0.00,CLR,,0.00,WeatherDisplay:10.37,2013-07-26 16:14:00,
2013-07-26 12:19:00,79.4,66.6,30.05,West,279,5.8,5.8,65,0.00,CLR,,0.00,WeatherDisplay:10.37,2013-07-26 16:19:00,
2013-07-26 12:24:00,79.2,66.0,30.05,West,273,6.9,6.9,64,0.00,CLR,,0.00,WeatherDisplay:10.37,2013-07-26 16:24:00,
2013-07-26 12:29:00,79.6,67.2,30.05,WSW,245,8.1,8.1,66,0.00,CLR,,0.00,WeatherDisplay:10.37,2013-07-26 16:29:00,
2013-07-26 12:34:00,79.6,65.9,30.05,WSW,238,9.2,9.2,63,0.00,CLR,,0.00,WeatherDisplay:10.37,2013-07-26 16:34:00,
2013-07-26 12:39:00,78.8,65.6,30.05,SW,222,6.0,6.0,64,0.00,CLR,,0.00,WeatherDisplay:10.37,2013-07-26 16:39:00,
2013-07-26 12:44:00,78.7,65.9,30.05,SW,234,4.0,4.0,65,0.00,CLR,,0.00,WeatherDisplay:10.37,2013-07-26 16:44:00,
2013-07-26 12:49:00,78.7,65.0,30.05,West,267,10.4,10.4,63,0.00,CLR,,0.00,WeatherDisplay:10.37,2013-07-26 16:49:00,
2013-07-26 12:54:00,78.9,64.8,30.05,WSW,254,8.1,8.1,62,0.00,CLR,,0.00,WeatherDisplay:10.37,2013-07-26 16:54:00,
2013-07-26 12:59:00,78.8,65.1,30.05,West,272,11.5,11.5,63,0.00,CLR,,0.00,WeatherDisplay:10.37,2013-07-26 16:59:00,
2013-07-26 13:04:00,79.2,64.6,30.05,WSW,255,8.1,8.1,61,0.00,CLR,,0.00,WeatherDisplay:10.37,2013-07-26 17:04:00,
2013-07-26 13:09:00,80.2,65.1,30.04,WNW,302,9.2,9.2,60,0.00,CLR,,0.00,WeatherDisplay:10.37,2013-07-26 17:09:00,
2013-07-26 13:14:00,80.1,66.4,30.04,West,264,6.9,6.9,63,0.00,CLR,,0.00,WeatherDisplay:10.37,2013-07-26 17:14:00,
2013-07-26 13:19:00,79.9,64.8,30.04,West,279,8.1,8.1,60,0.00,CLR,,0.00,WeatherDisplay:10.37,2013-07-26 17:19:00,
2013-07-26 13:24:00,80.2,66.0,30.03,WSW,251,6.9,6.9,62,0.00,CLR,,0.00,WeatherDisplay:10.37,2013-07-26 17:24:00,
2013-07-26 13:29:00,80.7,66.0,30.04,West,266,5.8,5.8,61,0.00,CLR,,0.00,WeatherDisplay:10.37,2013-07-26 17:29:00,
2013-07-26 13:34:00,80.8,65.1,30.03,West,264,6.9,6.9,59,0.00,CLR,,0.00,WeatherDisplay:10.37,2013-07-26 17:34:00,
2013-07-26 13:39:00,80.8,65.1,30.03,SW,225,5.8,5.8,59,0.00,CLR,,0.00,WeatherDisplay:10.37,2013-07-26 17:39:00,
2013-07-26 13:44:00,80.8,64.6,30.03,SW,232,9.2,9.2,58,0.00,CLR,,0.00,WeatherDisplay:10.37,2013-07-26 17:44:00,
2013-07-26 13:49:00,81.1,64.9,30.03,WNW,294,8.1,8.1,58,0.00,CLR,,0.00,WeatherDisplay:10.37,2013-07-26 17:49:00,
2013-07-26 13:54:00,81.4,66.7,30.03,WSW,250,9.2,9.2,61,0.00,CLR,,0.00,WeatherDisplay:10.37,2013-07-26 17:54:00,
2013-07-26 13:59:00,81.9,65.7,30.03,WSW,250,10.4,10.4,58,0.00,CLR,,0.00,WeatherDisplay:10.37,2013-07-26 17:59:00,
2013-07-26 14:04:00,81.9,64.1,30.03,WSW,258,10.4,10.4,55,0.00,CLR,,0.00,WeatherDisplay:10.37,2013-07-26 18:04:00,
2013-07-26 14:09:00,81.9,64.7,30.03,West,276,8.0,8.0,56,0.00,CLR,,0.00,WeatherDisplay:10.37,2013-07-26 18:09:00,
2013-07-26 14:10:00,81.9,64.7,30.03,NW,323,6.9,6.9,56,0.00,CLR,,0.00,WeatherDisplay:10.37,2013-07-26 18:10:00,
2013-07-26 14:15:00,81.7,65.5,30.03,West,274,3.0,10.0,58,0.00,CLR,,0.00,WeatherDisplay:10.37,2013-07-26 18:15:00,
2013-07-26 14:20:00,81.7,66.0,30.02,West,278,2.0,9.0,59,0.00,CLR,,0.00,WeatherDisplay:10.37,2013-07-26 18:20:00,
2013-07-26 14:25:00,81.6,65.9,30.02,West,274,5.0,9.0,59,0.00,CLR,,0.00,WeatherDisplay:10.37,2013-07-26 18:25:00,
2013-07-26 14:30:00,81.8,64.6,30.02,WSW,253,6.9,6.9,56,0.00,CLR,,0.00,WeatherDisplay:10.37,2013-07-26 18:30:00,
2013-07-26 14:35:00,82.3,65.0,30.02,WSW,254,5.0,9.0,56,0.00,CLR,,0.00,WeatherDisplay:10.37,2013-07-26 18:35:00,
2013-07-26 14:40:00,82.2,65.4,30.02,West,276,5.8,5.8,57,0.00,CLR,,0.00,WeatherDisplay:10.37,2013-07-26 18:40:00,
2013-07-26 14:45:00,82.4,63.5,30.02,SW,236,11.5,11.5,53,0.00,CLR,,0.00,WeatherDisplay:10.37,2013-07-26 18:45:00,
2013-07-26 14:50:00,82.7,64.4,30.02,West,274,3.5,3.5,54,0.00,CLR,,0.00,WeatherDisplay:10.37,2013-07-26 18:50:00,
2013-07-26 14:55:00,82.7,65.4,30.01,SW,224,4.6,4.6,56,0.00,CLR,,0.00,WeatherDisplay:10.37,2013-07-26 18:55:00,
2013-07-26 15:00:00,82.4,64.6,30.01,WNW,282,3.5,3.5,55,0.00,CLR,,0.00,WeatherDisplay:10.37,2013-07-26 19:00:00,
2013-07-26 15:05:00,82.5,65.7,30.01,WSW,243,4.6,4.6,57,0.00,CLR,,0.00,WeatherDisplay:10.37,2013-07-26 19:05:00,
2013-07-26 15:10:00,82.9,64.0,30.01,West,262,10.4,10.4,53,0.00,CLR,,0.00,WeatherDisplay:10.37,2013-07-26 19:10:00,
2013-07-26 15:15:00,83.0,65.2,30.01,West,261,5.8,5.8,55,0.00,CLR,,0.00,WeatherDisplay:10.37,2013-07-26 19:15:00,
2013-07-26 15:20:00,83.4,65.0,30.01,WNW,299,8.1,8.1,54,0.00,CLR,,0.00,WeatherDisplay:10.37,2013-07-26 19:20:00,
2013-07-26 15:25:00,83.7,65.8,30.00,SW,236,8.1,8.1,55,0.00,CLR,,0.00,WeatherDisplay:10.37,2013-07-26 19:25:00,
2013-07-26 15:30:00,83.4,63.4,30.00,West,272,8.1,8.1,51,0.00,CLR,,0.00,WeatherDisplay:10.37,2013-07-26 19:30:00,
2013-07-26 15:35:00,83.7,64.8,30.00,WNW,290,4.6,4.6,53,0.00,CLR,,0.00,WeatherDisplay:10.37,2013-07-26 19:35:00,
2013-07-26 15:40:00,83.6,64.1,30.00,SSW,212,8.0,8.0,52,0.00,CLR,,0.00,WeatherDisplay:10.37,2013-07-26 19:40:00,
2013-07-26 15:45:00,83.7,63.1,30.00,WSW,250,5.8,5.8,50,0.00,CLR,,0.00,WeatherDisplay:10.37,2013-07-26 19:45:00,
2013-07-26 15:50:00,83.8,65.9,30.00,WSW,252,4.6,4.6,55,0.00,CLR,,0.00,WeatherDisplay:10.37,2013-07-26 19:50:00,
2013-07-26 15:55:00,84.3,63.6,30.00,West,260,6.9,6.9,50,0.00,CLR,,0.00,WeatherDisplay:10.37,2013-07-26 19:55:00,
2013-07-26 16:00:00,83.8,63.2,30.00,WSW,242,4.6,4.6,50,0.00,CLR,,0.00,WeatherDisplay:10.37,2013-07-26 20:00:00,
2013-07-26 16:05:00,83.9,64.4,30.00,WSW,245,5.8,5.8,52,0.00,,,0.00,WeatherDisplay:10.37,2013-07-26 20:05:00,
2013-07-26 16:10:00,84.3,64.2,29.99,WSW,244,4.0,4.0,51,0.00,,,0.00,WeatherDisplay:10.37,2013-07-26 20:10:00,
2013-07-26 16:15:00,84.3,64.8,29.99,WSW,253,6.9,6.9,52,0.00,,,0.00,WeatherDisplay:10.37,2013-07-26 20:15:00,
2013-07-26 16:20:00,83.8,64.8,29.99,WNW,293,5.8,5.8,53,0.00,,,0.00,WeatherDisplay:10.37,2013-07-26 20:20:00,
2013-07-26 16:25:00,84.1,66.2,29.99,WSW,257,3.5,3.5,55,0.00,,,0.00,WeatherDisplay:10.37,2013-07-26 20:25:00,
2013-07-26 16:30:00,84.1,65.7,29.99,WSW,248,4.6,4.6,54,0.00,,,0.00,WeatherDisplay:10.37,2013-07-26 20:30:00,
2013-07-26 16:36:00,84.1,64.6,29.99,West,262,8.1,8.1,52,0.00,,,0.00,WeatherDisplay:10.37,2013-07-26 20:36:00,
2013-07-26 16:41:00,84.0,66.1,29.99,WNW,297,5.8,5.8,55,0.00,,,0.00,WeatherDisplay:10.37,2013-07-26 20:41:00,
2013-07-26 16:46:00,84.1,65.1,29.98,West,266,8.0,8.0,53,0.00,,,0.00,WeatherDisplay:10.37,2013-07-26 20:46:00,
2013-07-26 16:51:00,84.5,66.6,29.98,WSW,253,5.0,5.0,55,0.00,,,0.00,WeatherDisplay:10.37,2013-07-26 20:51:00,
2013-07-26 16:57:00,84.3,65.3,29.98,SW,236,5.0,5.0,53,0.00,,,0.00,WeatherDisplay:10.37,2013-07-26 20:57:00,
2013-07-26 17:02:00,84.0,66.1,29.98,WNW,282,6.9,6.9,55,0.00,,,0.00,WeatherDisplay:10.37,2013-07-26 21:02:00,
2013-07-26 17:07:00,83.8,64.3,29.98,WNW,296,4.6,4.6,52,0.00,,,0.00,WeatherDisplay:10.37,2013-07-26 21:07:00,
2013-07-26 17:12:00,83.3,64.4,29.98,WSW,258,4.6,4.6,53,0.00,,,0.00,WeatherDisplay:10.37,2013-07-26 21:12:00,
2013-07-26 17:17:00,83.7,64.2,29.98,West,262,4.6,4.6,52,0.00,,,0.00,WeatherDisplay:10.37,2013-07-26 21:17:00,
2013-07-26 17:22:00,84.1,64.6,29.98,WSW,254,5.8,5.8,52,0.00,,,0.00,WeatherDisplay:10.37,2013-07-26 21:22:00,
2013-07-26 17:25:00,65.7,65.1,29.95,SE,137,0.0,0.0,98,0.00,CLR,,0.00,WeatherDisplay:10.37,2013-07-26 21:25:00,
2013-07-26 17:27:00,84.3,63.6,29.97,West,260,3.5,3.5,50,0.00,,,0.00,WeatherDisplay:10.37,2013-07-26 21:27:00,
2013-07-26 17:32:00,84.8,65.2,29.97,WSW,257,3.5,3.5,52,0.00,,,0.00,WeatherDisplay:10.37,2013-07-26 21:32:00,
2013-07-26 17:37:00,85.0,64.3,29.97,West,263,4.6,4.6,50,0.00,,,0.00,WeatherDisplay:10.37,2013-07-26 21:37:00,
2013-07-26 17:42:00,84.9,63.0,29.97,WSW,254,3.5,3.5,48,0.00,,,0.00,WeatherDisplay:10.37,2013-07-26 21:42:00,
2013-07-26 17:47:00,84.8,63.5,29.97,NW,306,5.8,5.8,49,0.00,,,0.00,WeatherDisplay:10.37,2013-07-26 21:47:00,
2013-07-26 17:52:00,84.3,63.6,29.97,WSW,253,3.5,3.5,50,0.00,,,0.00,WeatherDisplay:10.37,2013-07-26 21:52:00,
2013-07-26 17:58:00,84.2,65.2,29.97,WSW,256,3.5,3.5,53,0.00,,,0.00,WeatherDisplay:10.37,2013-07-26 21:58:00,
2013-07-26 18:03:00,84.3,63.6,29.97,NW,306,4.6,4.6,50,0.00,,,0.00,WeatherDisplay:10.37,2013-07-26 22:03:00,
2013-07-26 18:08:00,83.3,63.3,29.97,WNW,298,5.8,5.8,51,0.00,,,0.00,WeatherDisplay:10.37,2013-07-26 22:08:00,
2013-07-26 18:13:00,83.1,63.1,29.97,West,266,2.3,2.3,51,0.00,,,0.00,WeatherDisplay:10.37,2013-07-26 22:13:00,
2013-07-26 18:18:00,83.6,64.7,29.97,WSW,251,3.5,3.5,53,0.00,,,0.00,WeatherDisplay:10.37,2013-07-26 22:18:00,
2013-07-26 18:23:00,84.0,65.0,29.97,WNW,297,3.0,3.0,53,0.00,,,0.00,WeatherDisplay:10.37,2013-07-26 22:23:00,
2013-07-26 18:28:00,84.2,63.5,29.97,West,281,1.2,1.2,50,0.00,,,0.00,WeatherDisplay:10.37,2013-07-26 22:28:00,
2013-07-26 18:33:00,84.3,65.8,29.97,West,261,3.5,3.5,54,0.00,,,0.00,WeatherDisplay:10.37,2013-07-26 22:33:00,
2013-07-26 18:38:00,83.9,65.5,29.97,NW,305,4.0,4.0,54,0.00,,,0.00,WeatherDisplay:10.37,2013-07-26 22:38:00,
2013-07-26 18:43:00,83.6,65.7,29.97,West,267,1.2,1.2,55,0.00,,,0.00,WeatherDisplay:10.37,2013-07-26 22:43:00,
2013-07-26 18:48:00,84.0,65.6,29.97,West,278,2.3,2.3,54,0.00,,,0.00,WeatherDisplay:10.37,2013-07-26 22:48:00,
2013-07-26 18:53:00,84.0,65.6,29.97,WNW,288,3.5,3.5,54,0.00,,,0.00,WeatherDisplay:10.37,2013-07-26 22:53:00,
2013-07-26 18:58:00,83.6,65.2,29.97,WSW,254,3.5,3.5,54,0.00,,,0.00,WeatherDisplay:10.37,2013-07-26 22:58:00,
2013-07-26 19:03:00,82.8,65.0,29.97,West,277,2.3,2.3,55,0.00,,,0.00,WeatherDisplay:10.37,2013-07-26 23:03:00,
2013-07-26 19:08:00,82.5,64.7,29.97,West,268,3.5,3.5,55,0.00,CLR,,0.00,WeatherDisplay:10.37,2013-07-26 23:08:00,
2013-07-26 19:13:00,82.1,64.8,29.97,WNW,296,3.5,3.5,56,0.00,CLR,,0.00,WeatherDisplay:10.37,2013-07-26 23:13:00,
2013-07-26 19:18:00,82.0,64.8,29.97,NW,316,4.6,4.6,56,0.00,CLR,,0.00,WeatherDisplay:10.37,2013-07-26 23:18:00,
2013-07-26 19:23:00,81.5,65.8,29.97,NW,315,2.3,2.3,59,0.00,CLR,,0.00,WeatherDisplay:10.37,2013-07-26 23:23:00,
2013-07-26 19:28:00,81.8,65.6,29.97,WNW,298,0.0,0.0,58,0.00,CLR,,0.00,WeatherDisplay:10.37,2013-07-26 23:28:00,
2013-07-26 19:33:00,82.1,64.8,29.96,WSW,250,4.6,4.6,56,0.00,CLR,,0.00,WeatherDisplay:10.37,2013-07-26 23:33:00,
2013-07-26 19:38:00,82.0,64.2,29.96,NW,306,3.5,0.0,55,0.00,CLR,,0.00,WeatherDisplay:10.37,2013-07-26 23:38:00,
2013-07-26 19:43:00,81.9,64.7,29.96,WNW,302,0.0,0.0,56,0.00,CLR,,0.00,WeatherDisplay:10.37,2013-07-26 23:43:00,
2013-07-26 19:48:00,81.8,64.1,29.97,WNW,300,2.3,2.3,55,0.00,CLR,,0.00,WeatherDisplay:10.37,2013-07-26 23:48:00,
2013-07-26 19:53:00,81.3,64.6,29.96,West,280,2.3,2.3,57,0.00,CLR,,0.00,WeatherDisplay:10.37,2013-07-26 23:53:00,
2013-07-26 19:58:00,81.0,64.3,29.96,WNW,285,3.5,3.5,57,0.00,CLR,,0.00,WeatherDisplay:10.37,2013-07-26 23:58:00,
2013-07-26 20:03:00,80.7,64.5,29.97,WNW,285,0.0,0.0,58,0.00,CLR,,0.00,WeatherDisplay:10.37,2013-07-27 00:03:00,
2013-07-26 20:08:00,80.5,64.4,29.96,WNW,285,0.0,0.0,58,0.00,CLR,,0.00,WeatherDisplay:10.37,2013-07-27 00:08:00,
2013-07-26 20:13:00,79.8,65.2,29.96,WNW,285,0.0,0.0,61,0.00,CLR,,0.00,WeatherDisplay:10.37,2013-07-27 00:13:00,
2013-07-26 20:18:00,78.7,65.0,29.96,SSW,205,2.3,2.3,63,0.00,CLR,,0.00,WeatherDisplay:10.37,2013-07-27 00:18:00,
2013-07-26 20:23:00,77.5,65.2,29.97,SSW,205,0.0,0.0,66,0.00,CLR,,0.00,WeatherDisplay:10.37,2013-07-27 00:23:00,
2013-07-26 20:28:00,76.5,65.1,29.97,SSW,207,0.0,0.0,68,0.00,CLR,,0.00,WeatherDisplay:10.37,2013-07-27 00:28:00,
2013-07-26 20:33:00,75.7,64.8,29.97,SSW,207,0.0,0.0,69,0.00,CLR,,0.00,WeatherDisplay:10.37,2013-07-27 00:33:00,
2013-07-26 20:38:00,74.9,65.3,29.97,SSW,206,0.0,0.0,72,0.00,CLR,,0.00,WeatherDisplay:10.37,2013-07-27 00:38:00,
2013-07-26 20:43:00,74.2,65.0,29.97,SSW,207,0.0,0.0,73,0.00,CLR,,0.00,WeatherDisplay:10.37,2013-07-27 00:43:00,
2013-07-26 20:48:00,73.8,65.0,29.97,SSW,207,0.0,0.0,74,0.00,CLR,,0.00,WeatherDisplay:10.37,2013-07-27 00:48:00,
2013-07-26 20:53:00,73.2,65.2,29.97,SSW,206,0.0,0.0,76,0.00,CLR,,0.00,WeatherDisplay:10.37,2013-07-27 00:53:00,
2013-07-26 20:58:00,72.6,65.0,29.97,SSW,207,0.0,0.0,77,0.00,CLR,,0.00,WeatherDisplay:10.37,2013-07-27 00:58:00,
2013-07-26 21:03:00,72.0,65.1,29.97,SSW,206,0.0,0.0,79,0.00,,,0.00,WeatherDisplay:10.37,2013-07-27 01:03:00,
2013-07-26 21:08:00,71.7,64.8,29.97,SSW,206,0.0,0.0,79,0.00,,,0.00,WeatherDisplay:10.37,2013-07-27 01:08:00,
2013-07-26 21:13:00,71.3,64.8,29.98,SSW,206,0.0,0.0,80,0.00,,,0.00,WeatherDisplay:10.37,2013-07-27 01:13:00,
2013-07-26 21:18:00,71.1,65.0,29.98,SSW,207,0.0,0.0,81,0.00,,,0.00,WeatherDisplay:10.37,2013-07-27 01:18:00,
2013-07-26 21:23:00,70.8,64.7,29.98,SSW,206,0.0,0.0,81,0.00,,,0.00,WeatherDisplay:10.37,2013-07-27 01:23:00,
2013-07-26 21:28:00,70.7,64.9,29.98,SSW,207,0.0,0.0,82,0.00,,,0.00,WeatherDisplay:10.37,2013-07-27 01:28:00,
2013-07-26 21:33:00,70.6,64.8,29.98,SSW,207,1.2,1.2,82,0.00,,,0.00,WeatherDisplay:10.37,2013-07-27 01:33:00,
2013-07-26 21:38:00,70.4,64.6,29.98,SSW,206,0.0,0.0,82,0.00,,,0.00,WeatherDisplay:10.37,2013-07-27 01:38:00,
2013-07-26 21:43:00,70.3,64.9,29.98,SSW,207,1.2,1.2,83,0.00,,,0.00,WeatherDisplay:10.37,2013-07-27 01:43:00,
2013-07-26 21:48:00,70.1,65.0,29.98,SSW,206,0.0,0.0,84,0.00,,,0.00,WeatherDisplay:10.37,2013-07-27 01:48:00,
2013-07-26 21:53:00,70.1,65.0,29.98,SSW,207,0.0,0.0,84,0.00,,,0.00,WeatherDisplay:10.37,2013-07-27 01:53:00,
2013-07-26 21:59:00,70.2,65.5,29.98,SE,144,1.2,1.2,85,0.00,,,0.00,WeatherDisplay:10.37,2013-07-27 01:59:00,
2013-07-26 22:04:00,70.3,65.6,29.98,SE,144,1.2,1.2,85,0.00,,,0.00,WeatherDisplay:10.37,2013-07-27 02:04:00,
2013-07-26 22:09:00,70.3,65.6,29.99,East,101,1.2,0.0,85,0.00,,,0.00,WeatherDisplay:10.37,2013-07-27 02:09:00,
2013-07-26 22:14:00,70.4,65.7,29.99,ESE,102,0.0,0.0,85,0.00,,,0.00,WeatherDisplay:10.37,2013-07-27 02:14:00,
2013-07-26 22:19:00,70.5,65.8,30.00,SSW,203,5.0,5.0,85,0.00,,,0.00,WeatherDisplay:10.37,2013-07-27 02:19:00,
2013-07-26 22:24:00,71.1,66.0,30.00,SSE,168,6.9,6.9,84,0.00,,,0.00,WeatherDisplay:10.37,2013-07-27 02:24:00,
2013-07-26 22:29:00,71.0,65.9,30.01,WSW,238,11.5,11.5,84,0.00,,,0.00,WeatherDisplay:10.37,2013-07-27 02:29:00,
2013-07-26 22:34:00,69.9,65.9,30.02,WSW,253,6.9,6.9,87,0.00,,,0.00,WeatherDisplay:10.37,2013-07-27 02:34:00,
2013-07-26 22:39:00,68.2,64.5,30.02,WSW,247,7.0,7.0,88,0.11,RA,,0.13,WeatherDisplay:10.37,2013-07-27 02:39:00,
2013-07-26 22:44:00,67.0,64.3,30.02,WNW,284,1.2,1.2,91,0.22,RA,,0.22,WeatherDisplay:10.37,2013-07-27 02:44:00,
2013-07-26 22:49:00,66.6,64.2,30.02,West,268,2.3,2.3,92,0.35,RA,,0.35,WeatherDisplay:10.37,2013-07-27 02:49:00,
2013-07-26 22:54:00,66.4,64.3,30.01,West,270,0.0,0.0,93,0.38,RA,,0.38,WeatherDisplay:10.37,2013-07-27 02:54:00,
2013-07-26 22:59:00,66.3,64.5,30.02,West,270,0.0,0.0,94,0.38,RA,,0.38,WeatherDisplay:10.37,2013-07-27 02:59:00,
2013-07-26 23:04:00,66.2,64.4,30.02,West,270,0.0,0.0,94,0.39,RA,,0.39,WeatherDisplay:10.37,2013-07-27 03:04:00,
2013-07-26 23:09:00,66.2,64.7,30.02,WNW,290,2.3,2.3,95,0.40,RA,,0.40,WeatherDisplay:10.37,2013-07-27 03:09:00,
2013-07-26 23:14:00,66.2,64.7,30.02,West,281,1.2,0.0,95,0.41,RA,,0.41,WeatherDisplay:10.37,2013-07-27 03:14:00,
2013-07-26 23:19:00,66.0,64.5,30.01,West,281,1.2,1.2,95,0.43,RA,,0.43,WeatherDisplay:10.37,2013-07-27 03:19:00,
2013-07-26 23:24:00,66.1,64.9,30.01,West,269,1.2,1.2,96,0.48,RA,,0.48,WeatherDisplay:10.37,2013-07-27 03:24:00,
2013-07-26 23:29:00,66.2,65.0,30.01,West,260,0.0,0.0,96,0.51,RA,,0.51,WeatherDisplay:10.37,2013-07-27 03:29:00,
2013-07-26 23:34:00,66.2,65.0,30.01,West,260,0.0,0.0,96,0.51,RA,,0.51,WeatherDisplay:10.37,2013-07-27 03:34:00,
2013-07-26 23:39:00,66.2,65.0,30.01,West,260,1.2,1.2,96,0.41,RA,,0.52,WeatherDisplay:10.37,2013-07-27 03:39:00,
2013-07-26 23:44:00,66.3,65.1,30.00,WSW,245,1.2,1.2,96,0.31,RA,,0.53,WeatherDisplay:10.37,2013-07-27 03:44:00,
2013-07-26 23:49:00,66.4,65.2,30.00,SW,225,1.2,1.2,96,0.18,RA,,0.53,WeatherDisplay:10.37,2013-07-27 03:49:00,
2013-07-26 23:54:00,66.3,65.1,30.00,SW,224,1.2,1.2,96,0.15,CLR,,0.53,WeatherDisplay:10.37,2013-07-27 03:54:00,
2013-07-26 23:59:00,66.4,65.5,30.00,SW,225,0.0,0.0,97,0.15,CLR,,0.53,WeatherDisplay:10.37,2013-07-27 03:59:00,